This is the latest recevied weather packets stored in our database for station/object K5OBH. If no packets are shown the sender has not sent any weather packets the latest 10 day(s).
| Time | Temp. | Humidity | Pressure | Rain* | Wind** | Luminosity | Snow |
|---|---|---|---|---|---|---|---|
| 1777470971 | 10.56° C | 82% | 1018.4 hPa | 0 mm | - | 173 W/m² | - |
| 1777470668 | 10.56° C | 83% | 1018.7 hPa | 0 mm | - | 134 W/m² | - |
| 1777470363 | 10° C | 83% | 1018.7 hPa | 0 mm | - | 158 W/m² | - |
| 1777470061 | 10° C | 84% | 1018.7 hPa | 0 mm | - | 152 W/m² | - |
| 1777469756 | 10° C | 84% | 1018.9 hPa | 0 mm | - | 119 W/m² | - |
| 1777469452 | 10° C | 85% | 1018.9 hPa | 0 mm | - | 116 W/m² | - |
| 1777469147 | 10° C | 85% | 1018.9 hPa | 0 mm | - | 127 W/m² | - |
| 1777468842 | 10° C | 86% | 1018.8 hPa | 0 mm | - | 145 W/m² | - |
| 1777468539 | 10° C | 86% | 1018.8 hPa | 0 mm | - | 127 W/m² | - |
| 1777468235 | 9.44° C | 87% | 1018.7 hPa | 0 mm | - | 127 W/m² | - |
| 1777467932 | 9.44° C | 87% | 1018.6 hPa | 0 mm | - | 96 W/m² | - |
| 1777467628 | 10° C | 86% | 1018.7 hPa | 0 mm | - | 93 W/m² | - |
| 1777467323 | 9.44° C | 87% | 1018.5 hPa | 0 mm | - | 99 W/m² | - |
| 1777467020 | 9.44° C | 88% | 1018.5 hPa | 0 mm | - | 86 W/m² | - |
| 1777466717 | 9.44° C | 88% | 1018.4 hPa | 0 mm | - | 67 W/m² | - |
| 1777466415 | 9.44° C | 89% | 1018.1 hPa | 0 mm | - | 62 W/m² | - |
| 1777466110 | 8.89° C | 90% | 1017.7 hPa | 0 mm | - | 46 W/m² | - |
| 1777465807 | 8.89° C | 91% | 1017.7 hPa | 0 mm | - | 33 W/m² | - |
| 1777465502 | 8.89° C | 90% | 1017.6 hPa | 0 mm | - | 24 W/m² | - |
| 1777465202 | 9.44° C | 90% | 1017.4 hPa | 0 mm | - | 22 W/m² | - |
| 1777464897 | 8.89° C | 91% | 1017.5 hPa | 0 mm | - | 20 W/m² | - |
| 1777464592 | 9.44° C | 91% | 1017.4 hPa | 0 mm | - | 15 W/m² | - |
| 1777464289 | 8.89° C | 91% | 1017.2 hPa | 0 mm | - | 12 W/m² | - |
| 1777463984 | 9.44° C | 91% | 1017.4 hPa | 0 mm | - | 10 W/m² | - |
| 1777463680 | 9.44° C | 91% | 1017.4 hPa | 0 mm | - | 6 W/m² | - |
* Rain latest hour (hover to see other rain measurements)
** Current wind speed in m/s (hover to see current wind gust speed)